ZHONGXING-6D

Last updated on Thu Oct 30 2025 00:02:52 GMT+0000 (Coordinated Universal Time)

1 52255U 22038A 25301.54944084 -.00000343 00000+0 00000+0 0 9992 2 52255 0.0550 257.1470 0002905 348.2398 114.6184 1.00269138 13100
UTC large
Height (km)
Speed (km/s)
/
Latitude / Longitude
Inclination (degrees)
Orbital Period (minutes)
Azimuth
Elevation
Range (km)
Doppler Factor

Next 0 passes for location: London (51.5072 / 0.1276)

Sorry there are no passes over London.